When you browse on this site, cookies collect data to enhance your experience and personalize the content and advertising you see.
Visit our Privacy Policy to learn more. By continuing to use the site, you agree to this use of cookies and data.
  • In Switzerland
  • List of Countries
  • For 7 days
  • Water Temperature
  • Satellite Maps
  • Weather Map
  • Weather Widgets
  • user-avatar
    Login

    Hourly Weather Tomakhiv

    Today, 21 July, Sunday

    Time Temperature Precipitation Wind Pressure Humidity
    00:00 +18°C° 0 mm 1 mps 746 mmHg 86%
    01:00 +18°C° 0 mm 1 mps 746 mmHg 87%
    02:00 +18°C° 0 mm 1 mps 746 mmHg 89%
    03:00 +18°C° 0.1 mm 1 mps 746 mmHg 89%
    04:00 +18°C° 0.1 mm 1 mps 746 mmHg 89%
    05:00 +15°C° 0.1 mm 0 mps 746 mmHg 89%
    06:00 +19°C° 0 mm 1 mps 746 mmHg 84%
    07:00 +21°C° 0 mm 1 mps 746 mmHg 80%
    08:00 +22°C° 0 mm 1 mps 746 mmHg 75%
    09:00 +24°C° 0.1 mm 1 mps 746 mmHg 71%
    10:00 +25°C° 0.1 mm 1 mps 746 mmHg 67%
    11:00 +27°C° 0.1 mm 1 mps 746 mmHg 62%
    12:00 +27°C° 0 mm 1 mps 746 mmHg 59%
    13:00 +28°C° 0 mm 1 mps 745 mmHg 56%
    14:00 +29°C° 0 mm 1 mps 745 mmHg 53%
    15:00 +29°C° 0 mm 1 mps 745 mmHg 56%
    16:00 +28°C° 0 mm 1 mps 745 mmHg 58%
    17:00 +28°C° 0 mm 1 mps 745 mmHg 60%
    18:00 +27°C° 0.3 mm 1 mps 745 mmHg 66%
    19:00 +23°C° 0.3 mm 0 mps 745 mmHg 72%
    20:00 +21°C° 0.3 mm 0 mps 744 mmHg 77%
    21:00 +22°C° 0.2 mm 1 mps 744 mmHg 80%
    22:00 +22°C° 0.2 mm 1 mps 745 mmHg 82%
    23:00 +21°C° 0.2 mm 1 mps 745 mmHg 84%

    Tomorrow, 22 July, Monday

    Time Temperature Precipitation Wind Pressure Humidity
    00:00 +21°C° 0.7 mm 1 mps 745 mmHg 87%
    01:00 +21°C° 0.7 mm 1 mps 744 mmHg 89%
    02:00 +21°C° 0.7 mm 1 mps 744 mmHg 92%
    03:00 +19°C° 0.9 mm 2 mps 744 mmHg 93%
    04:00 +19°C° 0.9 mm 3 mps 744 mmHg 94%
    05:00 +19°C° 0.9 mm 4 mps 744 mmHg 95%
    06:00 +19°C° 0.1 mm 4 mps 744 mmHg 95%
    07:00 +19°C° 0.1 mm 4 mps 744 mmHg 94%
    08:00 +19°C° 0.1 mm 3 mps 744 mmHg 94%
    09:00 +21°C° 0.6 mm 4 mps 745 mmHg 88%
    10:00 +22°C° 0.6 mm 5 mps 745 mmHg 82%
    11:00 +25°C° 0.6 mm 5 mps 745 mmHg 76%
    12:00 +24°C° 0.3 mm 6 mps 745 mmHg 73%
    13:00 +24°C° 0.3 mm 6 mps 745 mmHg 71%
    14:00 +26°C° 0.3 mm 7 mps 745 mmHg 68%
    15:00 +24°C° 0.1 mm 6 mps 745 mmHg 69%
    16:00 +24°C° 0.1 mm 6 mps 745 mmHg 69%
    17:00 +25°C° 0.1 mm 5 mps 745 mmHg 69%
    18:00 +22°C° 0 mm 4 mps 745 mmHg 73%
    19:00 +21°C° 0 mm 4 mps 745 mmHg 77%
    20:00 +20°C° 0 mm 3 mps 745 mmHg 81%
    21:00 +19°C° 0 mm 3 mps 745 mmHg 83%
    22:00 +18°C° 0 mm 3 mps 746 mmHg 85%
    23:00 +17°C° 0 mm 3 mps 746 mmHg 88%

    Day after tomorrow, 23 July, Tuesday

    Time Temperature Precipitation Wind Pressure Humidity
    00:00 +17°C° 0 mm 3 mps 746 mmHg 87%
    01:00 +16°C° 0 mm 3 mps 746 mmHg 87%
    02:00 +16°C° 0 mm 3 mps 745 mmHg 86%
    03:00 +16°C° 0 mm 3 mps 746 mmHg 87%
    04:00 +14°C° 0 mm 3 mps 746 mmHg 87%
    05:00 +14°C° 0 mm 3 mps 746 mmHg 88%
    06:00 +15°C° 0 mm 4 mps 746 mmHg 84%
    07:00 +17°C° 0 mm 4 mps 746 mmHg 80%
    08:00 +18°C° 0 mm 4 mps 745 mmHg 76%
    09:00 +19°C° 0 mm 5 mps 746 mmHg 72%
    10:00 +20°C° 0 mm 5 mps 746 mmHg 68%
    11:00 +21°C° 0 mm 5 mps 746 mmHg 63%
    12:00 +22°C° 0 mm 5 mps 745 mmHg 62%
    13:00 +22°C° 0 mm 5 mps 745 mmHg 60%
    14:00 +23°C° 0 mm 5 mps 745 mmHg 58%
    15:00 +23°C° 0 mm 5 mps 745 mmHg 60%
    16:00 +23°C° 0 mm 5 mps 745 mmHg 62%
    17:00 +23°C° 0 mm 5 mps 745 mmHg 64%
    18:00 +21°C° 0.1 mm 4 mps 745 mmHg 70%
    19:00 +20°C° 0.1 mm 4 mps 744 mmHg 76%
    20:00 +19°C° 0.1 mm 3 mps 744 mmHg 83%
    21:00 +18°C° 0 mm 3 mps 745 mmHg 85%
    22:00 +17°C° 0 mm 3 mps 745 mmHg 88%
    23:00 +17°C° 0 mm 3 mps 745 mmHg 90%

    24 July, Wednesday

    Time Temperature Precipitation Wind Pressure Humidity
    00:00 +16°C° 0 mm 3 mps 745 mmHg 92%
    01:00 +16°C° 0 mm 3 mps 745 mmHg 94%
    02:00 +15°C° 0 mm 4 mps 745 mmHg 95%
    03:00 +14°C° 0 mm 3 mps 745 mmHg 96%
    04:00 +14°C° 0 mm 3 mps 745 mmHg 97%
    05:00 +14°C° 0 mm 3 mps 745 mmHg 98%
    06:00 +16°C° 0 mm 3 mps 745 mmHg 95%
    07:00 +17°C° 0 mm 3 mps 745 mmHg 92%
    08:00 +18°C° 0 mm 3 mps 745 mmHg 88%
    09:00 +20°C° 0 mm 3 mps 746 mmHg 82%
    10:00 +21°C° 0 mm 3 mps 746 mmHg 75%
    11:00 +23°C° 0 mm 4 mps 746 mmHg 69%
    12:00 +25°C° 0 mm 4 mps 746 mmHg 66%
    13:00 +25°C° 0 mm 4 mps 745 mmHg 63%
    14:00 +26°C° 0 mm 4 mps 745 mmHg 60%
    15:00 +26°C° 0 mm 4 mps 745 mmHg 61%
    16:00 +26°C° 0 mm 4 mps 745 mmHg 62%
    17:00 +26°C° 0 mm 4 mps 745 mmHg 64%
    18:00 +24°C° 0 mm 3 mps 745 mmHg 70%
    19:00 +22°C° 0 mm 3 mps 745 mmHg 76%
    20:00 +20°C° 0 mm 2 mps 745 mmHg 83%
    21:00 +20°C° 0 mm 2 mps 745 mmHg 86%
    22:00 +19°C° 0 mm 2 mps 746 mmHg 88%
    23:00 +18°C° 0 mm 2 mps 746 mmHg 91%

    25 July, Thursday

    Time Temperature Precipitation Wind Pressure Humidity
    00:00 +18°C° 0 mm 2 mps 746 mmHg 92%
    01:00 +17°C° 0 mm 2 mps 746 mmHg 93%
    02:00 +17°C° 0 mm 2 mps 746 mmHg 93%
    03:00 +17°C° 0 mm 2 mps 746 mmHg 94%
    04:00 +17°C° 0 mm 2 mps 746 mmHg 95%
    05:00 +16°C° 0 mm 2 mps 746 mmHg 95%
    06:00 +18°C° 0 mm 2 mps 746 mmHg 91%
    07:00 +20°C° 0 mm 2 mps 746 mmHg 86%
    08:00 +21°C° 0 mm 2 mps 746 mmHg 81%
    09:00 +23°C° 0 mm 2 mps 746 mmHg 76%
    10:00 +25°C° 0 mm 2 mps 746 mmHg 71%
    11:00 +26°C° 0 mm 2 mps 746 mmHg 65%
    12:00 +26°C° 0.1 mm 2 mps 746 mmHg 63%
    13:00 +27°C° 0.1 mm 2 mps 746 mmHg 61%
    14:00 +28°C° 0.1 mm 2 mps 746 mmHg 58%
    15:00 +28°C° 0 mm 2 mps 746 mmHg 58%
    16:00 +28°C° 0 mm 2 mps 746 mmHg 59%
    17:00 +28°C° 0 mm 2 mps 745 mmHg 59%
    18:00 +26°C° 0 mm 2 mps 745 mmHg 66%
    19:00 +24°C° 0 mm 2 mps 745 mmHg 73%
    20:00 +22°C° 0 mm 1 mps 745 mmHg 80%
    21:00 +22°C° 0 mm 1 mps 745 mmHg 82%
    22:00 +21°C° 0 mm 1 mps 746 mmHg 84%
    23:00 +18°C° 0 mm 0 mps 746 mmHg 87%

    26 July, Friday

    Time Temperature Precipitation Wind Pressure Humidity
    00:00 +20°C° 0 mm 1 mps 746 mmHg 87%
    01:00 +20°C° 0 mm 1 mps 746 mmHg 88%
    02:00 +19°C° 0 mm 1 mps 746 mmHg 89%
    03:00 +19°C° 0 mm 1 mps 745 mmHg 90%
    04:00 +19°C° 0 mm 1 mps 745 mmHg 90%
    05:00 +19°C° 0 mm 1 mps 745 mmHg 91%
    06:00 +20°C° 0 mm 1 mps 745 mmHg 87%
    07:00 +22°C° 0 mm 1 mps 745 mmHg 83%
    08:00 +24°C° 0 mm 2 mps 745 mmHg 78%
    09:00 +25°C° 0 mm 2 mps 745 mmHg 73%
    10:00 +26°C° 0 mm 2 mps 745 mmHg 68%
    11:00 +27°C° 0 mm 2 mps 745 mmHg 63%
    12:00 +28°C° 0 mm 2 mps 744 mmHg 61%
    13:00 +28°C° 0 mm 2 mps 744 mmHg 58%
    14:00 +29°C° 0 mm 3 mps 744 mmHg 56%
    15:00 +29°C° 0 mm 3 mps 743 mmHg 57%
    16:00 +29°C° 0 mm 3 mps 743 mmHg 58%
    17:00 +29°C° 0 mm 3 mps 742 mmHg 59%
    18:00 +27°C° 0.1 mm 2 mps 742 mmHg 66%
    19:00 +25°C° 0.1 mm 2 mps 742 mmHg 72%
    20:00 +24°C° 0.1 mm 2 mps 742 mmHg 79%
    21:00 +23°C° 0 mm 2 mps 742 mmHg 82%
    22:00 +22°C° 0 mm 1 mps 742 mmHg 86%
    23:00 +21°C° 0 mm 1 mps 741 mmHg 89%
    Show more